Wind_Speed
10 9 9 8 7 6 4 3 3 3 4 5 6 6 6 7 7 8 9 10 11 11 10 9 8 8 8 8 8 8 8 8 8 8 9 9 8 8 8 8 9 9 10 11 11 11 11 11 11
10 10 10 9 8 7 5 5 5 5 6 6 7 6 7 7 8 8 9 10 10 10 10 9 9 9 9 9 9 9 8 8 8 9 9 9 8 8 9 9 9 10 11 11 12 12 12 12 12
11 11 10 9 8 7 7 6 6 7 7 7 8 7 7 7 8 9 10 10 10 10 10 9 9 9 9 9 9 9 8 9 9 9 9 9 9 9 9 9 10 11 11 12 12 12 12 12 12
12 11 12 10 9 8 8 8 8 8 8 8 7 9 7 6 8 9 10 10 10 9 9 9 10 9 9 9 9 8 9 9 9 9 9 10 10 10 10 10 11 11 11 12 13 13 13 13 13
12 12 12 11 10 10 10 10 9 9 8 8 8 8 8 7 8 9 9 9 9 9 9 9 9 9 9 9 9 9 9 9 9 10 10 10 10 11 11 12 12 12 13 13 13 13 14 14 14
13 12 11 11 12 12 11 10 9 8 8 9 9 9 9 9 9 8 9 9 8 8 9 10 10 9 9 9 9 9 9 9 10 10 10 10 10 10 11 13 13 13 14 14 14 14 14 14 15
13 12 12 11 11 11 11 10 9 9 9 10 11 11 10 10 9 9 9 8 8 9 9 10 10 10 10 10 10 10 9 10 11 11 11 11 11 12 13 13 14 14 14 15 15 15 15 15 16
12 12 12 12 10 10 10 10 10 10 9 10 11 11 10 10 10 10 9 9 9 10 10 10 11 11 11 11 11 10 10 11 12 12 12 12 12 13 13 14 15 15 15 15 15 16 16 16 17
12 13 12 12 11 10 10 10 10 9 9 10 11 11 11 11 11 11 9 9 9 10 10 10 11 11 11 11 11 11 11 12 13 13 13 13 13 14 15 15 16 15 15 16 16 16 16 16 17
12 13 12 12 11 11 11 10 10 9 9 10 10 11 11 11 12 11 9 9 9 9 10 12 13 13 12 12 11 11 12 13 14 14 14 14 14 15 16 17 16 15 15 16 16 17 16 16 16
13 12 12 11 11 11 11 10 10 10 9 9 9 10 10 10 11 11 11 10 10 10 11 13 13 14 13 13 12 12 13 14 15 15 15 15 15 16 16 17 17 16 16 16 16 16 16 16 17
13 13 13 13 13 12 11 11 10 9 9 9 9 10 10 10 11 11 11 11 11 11 12 13 13 14 14 13 14 13 13 15 16 16 17 16 16 17 17 17 17 17 16 16 17 16 17 17 18
13 13 13 13 13 12 11 9 8 9 10 9 9 9 10 10 11 11 10 11 12 11 13 13 14 14 13 13 13 14 15 15 16 17 17 17 17 17 18 18 18 18 17 17 17 17 18 18 18
14 14 14 13 14 13 11 10 9 8 9 10 10 10 10 11 11 11 11 11 11 12 13 15 15 15 15 14 15 15 16 17 17 17 17 18 18 18 18 19 18 18 18 17 17 17 18 18 18
14 13 13 13 13 12 12 11 9 9 10 10 11 12 11 11 11 12 11 11 11 12 13 15 16 16 16 16 16 17 17 18 17 18 18 18 18 18 18 18 18 18 18 18 18 18 18 18 18
14 13 13 13 12 12 12 11 10 10 10 11 12 12 12 12 12 12 13 12 12 13 14 14 15 15 15 16 16 17 17 18 18 19 19 18 18 18 18 19 18 18 18 18 18 18 17 17 18
15 14 14 14 13 13 13 12 11 11 11 11 12 13 13 13 13 13 13 13 14 15 15 15 15 15 16 16 17 18 18 19 19 19 19 19 18 18 18 18 18 18 18 18 18 17 17 18 19
15 15 14 14 13 14 14 12 12 12 12 12 13 13 13 14 13 14 14 15 16 17 17 16 16 16 16 17 18 18 19 19 19 19 18 18 18 17 17 17 17 17 17 18 18 18 18 18 19
15 16 16 15 14 15 15 13 13 13 12 13 13 13 14 14 14 15 16 17 17 18 18 17 17 18 18 18 18 19 18 18 18 18 18 18 17 17 17 17 16 17 17 18 18 18 18 18 18
16 17 16 16 16 17 16 14 14 13 13 13 14 15 15 15 16 16 17 18 17 18 19 18 17 18 19 19 19 18 18 17 18 18 18 18 17 17 16 16 17 17 17 18 18 18 18 18 18
16 17 16 16 17 18 18 16 14 14 14 14 15 16 17 17 17 18 18 18 18 18 18 18 17 18 19 19 18 18 18 18 18 17 17 17 17 17 16 16 16 17 17 17 17 17 18 18 19
14 15 16 17 18 18 17 16 15 15 15 16 17 18 18 18 19 19 19 18 17 17 17 17 18 19 19 19 17 17 18 18 17 17 17 17 17 17 17 17 17 17 17 17 17 17 18 19 19
14 15 16 17 18 17 17 18 16 14 15 16 17 18 18 18 18 18 18 18 17 18 18 18 19 20 19 18 17 16 17 17 16 16 16 17 17 17 17 17 17 16 16 17 17 17 18 19 19
15 16 17 18 18 17 16 17 15 15 15 17 17 18 18 17 17 17 17 17 17 17 18 18 19 20 19 18 17 16 17 17 16 16 15 16 16 17 16 16 16 17 17 17 17 18 18 18 19
17 17 18 19 19 18 17 17 16 16 16 17 18 18 18 17 17 16 16 17 17 18 18 19 19 19 19 18 17 16 16 16 16 16 16 16 16 16 16 16 17 17 17 17 17 18 18 18 18
17 17 17 17 17 16 16 17 16 16 17 17 17 18 18 17 16 16 16 17 18 18 18 18 18 18 17 17 16 16 15 14 14 15 15 16 15 15 15 15 16 16 16 16 16 17 17 18 18
16 16 16 17 17 17 17 16 16 16 17 17 17 17 16 16 16 16 17 18 18 19 18 17 17 15 14 14 14 14 14 14 14 14 14 14 14 14 14 14 14 14 15 15 16 16 17 17 17
17 16 16 16 18 18 18 16 17 16 17 17 17 16 16 15 16 16 17 18 18 18 16 15 15 14 14 14 14 14 14 14 13 13 14 14 15 15 14 13 13 13 14 15 15 15 15 15 16
17 16 17 18 19 19 19 17 17 17 17 16 16 16 16 16 16 17 17 17 16 16 16 15 14 14 14 14 13 13 13 13 13 13 14 14 14 14 13 13 13 13 14 14 14 15 15 15 16
16 16 17 18 19 19 19 18 17 16 16 16 17 17 17 16 16 16 16 16 16 16 16 14 13 13 13 13 14 13 13 14 14 14 14 14 14 14 13 13 13 13 13 13 14 15 15 16 16
Wind_Direction
234 230 226 226 232 231 228 246 272 295 306 306 310 321 324 330 332 331 331 331 330 327 323 324 321 317 317 313 311 306 303 310 309 307 305 303 299 293 290 286 286 286 285 283 280 277 274 271 268
237 235 229 230 230 232 240 255 265 281 293 297 302 313 307 315 318 319 323 324 324 320 316 313 311 310 311 308 309 309 304 306 304 302 302 299 296 290 286 283 284 283 284 282 279 277 276 274 269
238 238 231 229 229 234 246 258 268 280 288 299 307 311 310 308 312 320 323 322 322 319 314 310 307 305 308 308 311 309 304 304 303 301 300 296 291 290 286 284 285 285 284 282 281 278 277 276 270
239 238 234 234 236 240 248 253 260 275 284 300 310 314 310 305 310 321 323 324 320 316 313 312 309 306 309 309 309 307 298 298 300 301 301 299 290 285 281 286 287 286 284 282 279 276 275 275 272
239 239 237 237 239 242 249 255 267 274 287 298 305 306 309 311 313 321 326 327 323 316 307 303 305 303 303 307 301 299 294 293 295 299 298 295 291 287 286 287 287 286 283 281 279 275 273 271 270
241 242 239 239 238 244 249 255 262 272 286 294 301 302 304 307 307 313 319 325 323 316 306 303 303 303 302 301 300 294 291 290 292 293 293 291 288 287 288 288 289 288 286 283 277 273 272 271 269
241 243 244 240 239 243 248 252 263 274 285 290 297 302 303 299 309 310 314 319 317 313 306 307 305 300 297 294 294 290 287 288 289 290 289 287 286 284 286 286 288 287 285 282 277 273 270 269 268
242 245 245 240 241 242 250 258 264 271 285 292 296 298 299 297 306 310 310 312 311 311 311 309 304 300 296 295 291 285 284 284 286 287 287 285 284 283 283 283 285 285 283 279 274 270 268 267 267
243 244 244 242 243 246 253 261 265 270 287 292 295 297 297 295 298 299 305 310 311 312 314 309 306 304 301 297 291 285 284 282 282 282 284 283 283 284 283 284 285 286 282 277 273 270 267 266 265
239 241 243 243 246 248 256 265 264 267 284 290 292 295 294 291 294 298 301 305 310 313 314 315 307 304 302 295 289 290 291 285 284 283 281 281 282 282 282 281 284 283 280 277 273 269 267 265 263
236 236 240 243 247 248 254 263 267 271 280 289 290 294 296 294 294 298 300 299 304 310 311 311 308 303 299 294 289 289 289 287 285 283 283 282 281 281 283 282 282 282 279 275 273 270 267 264 262
233 235 238 241 247 249 253 260 261 268 278 288 296 299 299 297 295 298 298 300 304 307 311 311 309 307 302 293 288 287 289 290 286 283 284 282 280 281 281 282 281 281 279 275 271 270 269 265 263
237 235 239 242 247 251 253 255 258 268 272 281 296 300 303 303 302 302 299 302 305 308 311 313 310 309 305 298 291 291 292 292 291 291 287 284 283 283 283 282 281 279 277 276 271 270 271 267 265
237 235 239 243 248 248 250 252 261 268 273 280 290 297 303 303 305 303 301 301 304 308 311 312 312 308 305 299 294 291 290 292 292 293 290 287 284 283 283 283 283 280 277 274 272 272 271 267 262
235 237 237 240 244 249 253 256 266 273 281 286 291 299 305 301 301 298 296 297 300 302 306 308 310 308 305 299 296 295 294 291 292 293 290 287 285 283 283 283 281 280 275 274 274 273 270 265 261
236 238 234 236 244 250 258 260 263 268 276 285 290 297 304 302 301 299 296 298 300 301 301 303 305 306 303 299 296 297 296 294 294 294 292 287 283 282 283 282 279 278 276 273 273 271 268 265 262
238 242 240 239 246 254 260 263 265 269 274 281 288 295 299 299 300 300 298 297 299 301 301 300 302 303 301 298 298 298 297 298 297 296 294 289 283 282 284 282 276 273 274 274 271 268 267 266 264
242 244 244 243 248 254 259 264 266 267 273 278 285 288 293 297 298 295 295 294 296 300 299 297 297 299 301 299 301 304 300 299 296 297 296 293 288 283 283 284 279 276 273 270 269 269 269 268 265
244 246 249 252 253 255 261 267 267 265 270 274 279 284 290 291 290 292 292 296 293 295 297 297 298 298 300 301 301 303 300 296 294 293 290 290 289 285 283 283 280 277 275 273 271 270 269 268 266
244 249 252 254 256 260 264 269 272 269 268 273 279 284 288 289 288 291 294 298 295 293 293 294 297 299 300 301 299 300 297 294 290 290 290 290 287 284 282 281 281 279 277 274 271 269 269 270 268
243 249 254 257 259 265 269 270 273 273 273 277 282 283 285 288 289 292 297 297 295 293 293 294 296 298 299 300 299 299 297 294 290 289 290 291 289 285 283 281 282 281 278 275 271 269 269 270 270
249 251 255 259 262 268 273 271 272 276 276 278 283 285 286 288 290 291 296 296 293 293 295 298 298 297 298 299 298 295 296 295 292 289 288 286 286 286 284 281 280 280 280 277 273 271 271 271 271
253 254 258 262 267 270 272 274 274 277 279 282 285 288 287 289 292 294 298 297 296 296 298 299 301 298 296 297 297 296 296 295 294 293 289 288 286 285 284 283 279 277 279 278 275 273 274 272 271
251 256 260 263 267 271 275 277 277 282 285 285 287 288 287 289 291 294 298 300 299 297 299 299 297 300 297 297 297 296 295 294 294 293 294 293 289 284 281 282 278 276 277 277 276 276 278 277 274
251 255 263 265 268 275 277 276 281 284 285 286 287 288 289 290 291 292 298 301 299 298 297 300 300 300 297 297 297 295 298 298 297 295 296 294 292 287 283 282 280 278 276 276 278 277 279 278 276
251 257 265 271 274 278 279 282 287 285 284 287 288 288 289 290 291 293 298 301 302 300 302 304 304 302 299 297 296 294 297 298 299 300 298 295 291 289 290 288 284 280 279 279 280 281 281 278 275
254 260 265 271 275 277 281 286 289 287 287 288 290 289 287 288 291 295 296 299 301 301 302 304 304 304 303 302 297 294 294 297 299 302 300 297 296 296 295 291 287 285 283 281 279 280 282 280 274
255 261 266 272 280 282 286 289 294 296 291 290 292 291 290 291 295 298 298 299 301 302 302 303 304 306 304 303 299 297 295 296 299 303 300 301 301 298 295 292 293 292 288 286 283 282 283 282 281
256 259 265 272 278 283 286 289 296 296 294 292 293 292 292 295 298 300 299 299 301 302 303 302 304 306 305 305 302 299 298 297 300 304 304 303 301 299 294 291 292 293 293 292 290 287 285 281 282
256 261 267 272 278 282 285 288 294 296 294 291 292 292 291 295 300 301 300 299 303 303 302 302 308 311 309 306 303 304 302 301 300 301 302 302 299 298 294 291 292 293 294 294 292 289 287 283 283
Height
5870 5871 5872 5874 5875 5875 5875 5875 5875 5875 5875 5875 5876 5876 5876 5876 5876 5878 5876 5873 5872 5872 5871 5871 5870 5869 5869 5869 5868 5868 5868 5868 5868 5868 5868 5869 5869 5869 5869 5869 5869 5870 5870 5870 5870 5871 5871 5871 5872
5869 5870 5872 5873 5873 5873 5874 5874 5875 5875 5875 5875 5874 5874 5874 5874 5874 5874 5873 5872 5871 5871 5870 5870 5869 5868 5868 5867 5866 5866 5866 5866 5866 5866 5867 5867 5867 5867 5868 5868 5868 5868 5868 5868 5868 5869 5869 5869 5870
5867 5869 5871 5871 5871 5872 5873 5874 5874 5874 5874 5874 5873 5873 5872 5873 5873 5872 5872 5871 5870 5869 5869 5868 5868 5867 5866 5865 5865 5864 5864 5864 5864 5864 5865 5865 5865 5865 5866 5866 5866 5866 5866 5866 5866 5867 5867 5867 5867
5866 5868 5869 5870 5870 5871 5872 5872 5872 5872 5873 5873 5873 5872 5872 5872 5872 5871 5870 5869 5869 5868 5867 5867 5866 5865 5865 5864 5863 5863 5863 5863 5862 5862 5862 5862 5863 5863 5863 5863 5863 5863 5863 5864 5864 5864 5865 5865 5865
5864 5866 5867 5867 5868 5869 5870 5870 5871 5871 5871 5872 5872 5872 5871 5871 5870 5869 5869 5868 5867 5866 5866 5865 5864 5864 5863 5862 5862 5862 5861 5861 5861 5861 5860 5860 5860 5860 5860 5861 5861 5861 5861 5861 5861 5861 5862 5862 5862
5863 5863 5865 5866 5867 5867 5868 5869 5869 5869 5870 5870 5871 5871 5870 5870 5869 5868 5868 5867 5866 5865 5864 5863 5862 5862 5861 5861 5860 5860 5859 5859 5859 5859 5858 5858 5858 5858 5858 5858 5858 5858 5858 5858 5858 5858 5858 5859 5859
5861 5862 5863 5864 5865 5865 5866 5867 5868 5868 5868 5869 5869 5869 5869 5868 5867 5867 5866 5865 5864 5863 5862 5861 5861 5860 5860 5859 5858 5858 5857 5857 5857 5856 5856 5856 5856 5855 5855 5855 5855 5854 5854 5854 5854 5855 5855 5855 5856
5859 5861 5861 5862 5863 5864 5865 5865 5865 5866 5866 5867 5867 5867 5867 5866 5866 5865 5864 5864 5863 5862 5861 5860 5859 5858 5858 5857 5856 5855 5855 5855 5854 5854 5853 5853 5853 5852 5852 5851 5851 5851 5850 5851 5851 5851 5851 5852 5852
5857 5859 5859 5861 5862 5863 5863 5863 5863 5864 5865 5865 5865 5866 5866 5865 5864 5864 5863 5862 5861 5860 5859 5858 5857 5856 5855 5854 5853 5853 5852 5852 5851 5851 5850 5850 5850 5849 5849 5848 5848 5847 5847 5847 5847 5847 5847 5848 5849
5856 5857 5859 5860 5861 5861 5861 5861 5862 5862 5863 5863 5863 5863 5863 5863 5862 5862 5861 5860 5859 5858 5857 5856 5855 5854 5853 5852 5851 5850 5850 5849 5848 5848 5847 5847 5846 5846 5845 5845 5844 5844 5843 5843 5843 5843 5843 5844 5845
5854 5856 5857 5858 5858 5859 5859 5860 5860 5860 5861 5861 5861 5861 5861 5861 5861 5860 5859 5858 5857 5856 5855 5854 5853 5852 5850 5849 5848 5848 5847 5846 5845 5844 5843 5843 5842 5842 5841 5841 5840 5840 5839 5839 5839 5839 5839 5840 5841
5853 5854 5855 5856 5856 5857 5857 5858 5858 5858 5859 5859 5859 5859 5859 5858 5858 5858 5857 5856 5855 5854 5853 5852 5850 5849 5848 5847 5846 5845 5844 5843 5842 5841 5840 5839 5838 5838 5837 5837 5836 5835 5835 5835 5835 5835 5836 5836 5837
5850 5852 5852 5853 5854 5855 5856 5856 5856 5856 5857 5857 5857 5857 5857 5856 5855 5855 5855 5854 5853 5852 5851 5849 5848 5847 5845 5844 5843 5842 5841 5840 5838 5837 5836 5835 5834 5834 5833 5832 5831 5831 5831 5831 5831 5831 5831 5832 5833
5849 5849 5850 5851 5852 5853 5853 5854 5854 5854 5854 5855 5855 5854 5854 5854 5853 5852 5852 5851 5850 5850 5848 5847 5845 5844 5843 5842 5840 5839 5837 5836 5835 5833 5832 5831 5830 5829 5828 5827 5827 5826 5826 5826 5826 5827 5827 5827 5828
5846 5848 5849 5849 5850 5851 5851 5852 5852 5852 5852 5853 5853 5852 5851 5851 5851 5850 5849 5848 5847 5846 5845 5844 5843 5841 5840 5838 5837 5836 5834 5832 5831 5829 5828 5826 5825 5824 5823 5823 5822 5821 5821 5821 5822 5822 5822 5823 5824
5844 5846 5847 5848 5848 5848 5850 5850 5851 5850 5850 5850 5850 5850 5849 5849 5848 5847 5846 5845 5844 5843 5842 5841 5840 5838 5836 5834 5833 5832 5830 5828 5826 5825 5823 5822 5820 5819 5818 5818 5817 5816 5816 5816 5817 5817 5818 5818 5819
5842 5843 5844 5845 5845 5846 5846 5847 5848 5848 5847 5847 5847 5847 5846 5846 5845 5844 5843 5842 5841 5840 5838 5837 5836 5834 5832 5831 5829 5827 5825 5823 5822 5820 5818 5817 5815 5814 5813 5812 5811 5811 5811 5812 5812 5812 5813 5814 5814
5839 5840 5842 5842 5843 5843 5844 5845 5845 5845 5845 5844 5844 5844 5843 5843 5842 5841 5840 5838 5837 5836 5835 5834 5832 5830 5828 5827 5825 5823 5821 5818 5817 5815 5814 5812 5811 5810 5809 5808 5807 5807 5807 5807 5807 5808 5808 5809 5809
5836 5837 5838 5840 5840 5840 5841 5842 5842 5842 5842 5842 5841 5841 5840 5839 5838 5837 5836 5834 5833 5832 5830 5829 5828 5826 5824 5822 5820 5818 5816 5814 5813 5811 5809 5808 5807 5806 5804 5804 5803 5802 5802 5802 5802 5803 5803 5804 5804
5833 5834 5835 5837 5837 5837 5838 5839 5839 5839 5838 5839 5838 5838 5837 5836 5835 5833 5832 5830 5828 5827 5826 5824 5822 5821 5819 5817 5816 5814 5812 5810 5809 5807 5805 5803 5802 5801 5800 5800 5799 5798 5798 5798 5798 5798 5799 5799 5799
5831 5832 5833 5834 5834 5834 5835 5835 5836 5835 5835 5835 5835 5834 5833 5832 5831 5829 5827 5826 5824 5822 5821 5819 5818 5816 5814 5813 5811 5809 5808 5806 5804 5803 5801 5799 5798 5797 5796 5796 5795 5795 5794 5794 5794 5794 5794 5794 5795
5828 5829 5830 5830 5831 5831 5832 5831 5833 5832 5831 5831 5830 5829 5828 5827 5826 5824 5823 5821 5820 5818 5816 5815 5813 5812 5810 5808 5806 5805 5803 5802 5800 5798 5796 5795 5794 5793 5792 5792 5791 5791 5790 5790 5790 5789 5789 5789 5790
5826 5826 5826 5827 5827 5827 5827 5827 5829 5828 5827 5827 5826 5825 5824 5823 5822 5820 5819 5817 5816 5814 5812 5810 5808 5807 5805 5803 5802 5800 5799 5797 5796 5793 5792 5790 5789 5789 5788 5787 5787 5786 5786 5786 5785 5785 5785 5784 5785
5823 5823 5823 5823 5823 5824 5824 5824 5824 5824 5824 5823 5822 5821 5820 5819 5817 5816 5815 5813 5811 5809 5808 5806 5804 5802 5800 5799 5797 5796 5794 5793 5791 5790 5788 5786 5785 5784 5784 5783 5782 5782 5781 5781 5781 5780 5780 5779 5779
5820 5821 5821 5820 5820 5821 5821 5820 5821 5821 5820 5819 5818 5817 5816 5815 5814 5812 5811 5809 5808 5805 5804 5802 5799 5797 5795 5794 5793 5791 5790 5788 5787 5785 5784 5782 5781 5780 5779 5779 5778 5777 5777 5776 5776 5775 5775 5774 5774
5816 5818 5818 5817 5817 5818 5817 5816 5818 5817 5816 5815 5814 5813 5812 5811 5810 5809 5807 5806 5804 5802 5800 5798 5795 5793 5791 5789 5788 5787 5785 5784 5783 5781 5779 5778 5777 5777 5776 5775 5774 5773 5772 5772 5771 5770 5770 5769 5769
5813 5814 5815 5815 5814 5814 5814 5814 5814 5813 5812 5812 5811 5810 5808 5808 5806 5805 5804 5802 5800 5798 5796 5794 5791 5789 5787 5785 5784 5783 5781 5781 5779 5777 5776 5775 5774 5773 5772 5771 5770 5769 5768 5767 5766 5766 5765 5764 5764
5810 5811 5811 5811 5810 5810 5810 5811 5811 5810 5809 5808 5807 5806 5805 5804 5803 5801 5800 5798 5796 5794 5792 5790 5788 5786 5784 5782 5781 5779 5778 5777 5776 5774 5773 5772 5770 5769 5768 5767 5766 5765 5764 5763 5762 5761 5760 5760 5760
5806 5807 5807 5807 5807 5807 5806 5809 5808 5807 5805 5804 5803 5803 5802 5800 5799 5797 5796 5794 5792 5790 5788 5786 5785 5783 5781 5779 5778 5776 5775 5774 5773 5771 5770 5769 5767 5766 5765 5764 5763 5762 5761 5759 5758 5757 5756 5756 5755
5803 5803 5804 5804 5804 5803 5803 5807 5804 5803 5802 5801 5800 5799 5798 5797 5795 5794 5792 5790 5788 5786 5784 5783 5781 5779 5778 5777 5775 5774 5772 5771 5770 5768 5767 5766 5764 5763 5762 5760 5759 5758 5757 5756 5755 5753 5752 5752 5751